Location: Alphen
(52.1351°N, 4.6549°E)
Time: 02:04:59
(UTC+00:00)

SL-4 R/B - Pass Details

Date: 27 January 2021
Orbit: 427 x 664 km, 51.6° (Epoch: 26 February)

Event Time Altitude Azimuth Distance (km) Brightness Sun altitude
Exits shadow 06:30:48 - 260° (W) 1,781 4.1 -9.0°
Reaches altitude 10° 06:30:59 10° 260° (W) 1,707 4.0 -9.0°
Maximum altitude 06:34:52 82° 173° (S) 542 2.0 -8.4°
Drops below altitude 10° 06:39:05 10° 86° (E) 1,857 6.0 -7.8°
Sets 06:41:26 0° 86° (E) 2,799 7.0 -7.4°
